Weather History for KEAR - December, 2012

Change the Weather History Date:

Tuesday, December 11, 2012

  Actual Average Record
Temperature  
Mean Temperature 31 °F 26 °F  
Max Temperature 45 °F 37 °F 68 °F (1990)
Min Temperature 16 °F 16 °F -24 °F (1932)
Degree Days  
Heating Degree Days 34 39  
Month to date heating degree days 409  
Since 1 July heating degree days 1842  
Cooling Degree Days 0 0  
Month to date cooling degree days 0  
Year to date cooling degree days 871  
Moisture  
Dew Point 13 °F    
Average Humidity 55    
Maximum Humidity 80    
Minimum Humidity 29    
Precipitation  
Precipitation 0.00 in - 0.28 in (1961)
Sea Level Pressure  
Sea Level Pressure 29.95 in    
Wind  
Wind Speed 10 mph (SW)    
Max Wind Speed 18 mph    
Max Gust Speed 22 mph    
Visibility 10 miles    
Events      
T = Trace of Precipitation, MM = Missing Value Source: NWS Daily Summary

Daily Weather History Graph

Daily Weather History Graph

Search for Another Location

Airport or City:

Trip Planner

Search our weather history database for the weather conditions in past years. The results will help you decide how hot, cold, wet, or windy it might be!

Date:

Astronomy

Dec. 11, 2012 Rise Set
Actual Time 7:50 AM CST 5:08 PM CST
Civil Twilight 7:19 AM CST 5:39 PM CST
Nautical Twilight 6:45 AM CST 6:13 PM CST
Astronomical Twilight 6:11 AM CST 6:47 PM CST
Moon 5:46 AM CST (12/11) 3:49 PM CST (12/11)
Length of Visible Light 10h 20m
Length of Day
9h 18m
Waning Crescent, 4% of the Moon is Illuminated
Dec 11
Waning Crescent
Dec 13
New
Dec 19
First Quarter
Dec 28
Full
Jan 4
Last Quarter

Hourly Weather History & Observations

Time (CST) Temp. Windchill Dew Point Humidity Pressure Visibility Wind Dir Wind Speed Gust Speed Precip Events Conditions
12:15 AM 24.8 °F 20.5 °F 10.4 °F 54% 29.95 in 10.0 mi West 3.5 mph - N/A   Mostly Cloudy
12:35 AM 24.8 °F 20.5 °F 12.2 °F 59% 29.95 in 10.0 mi WNW 3.5 mph - N/A   Overcast
12:55 AM 26.6 °F 19.1 °F 14.0 °F 59% 29.95 in 10.0 mi WNW 6.9 mph - N/A   Overcast
1:15 AM 24.8 °F 16.9 °F 12.2 °F 59% 29.96 in 10.0 mi WNW 6.9 mph - N/A   Mostly Cloudy
1:35 AM 24.8 °F 16.1 °F 14.0 °F 64% 29.96 in 10.0 mi WNW 8.1 mph - N/A   Partly Cloudy
1:55 AM 23.0 °F 13.9 °F 12.2 °F 63% 29.96 in 10.0 mi WNW 8.1 mph - N/A   Scattered Clouds
2:15 AM 23.0 °F 14.7 °F 15.8 °F 74% 29.96 in 10.0 mi West 6.9 mph - N/A   Mostly Cloudy
2:35 AM 26.6 °F 20.0 °F 15.8 °F 64% 29.97 in 10.0 mi West 5.8 mph - N/A   Overcast
2:55 AM 26.6 °F 20.0 °F 15.8 °F 64% 29.97 in 10.0 mi West 5.8 mph - N/A   Overcast
3:15 AM 26.6 °F 18.2 °F 15.8 °F 64% 29.97 in 10.0 mi West 8.1 mph - N/A   Mostly Cloudy
3:35 AM 24.8 °F 15.3 °F 15.8 °F 69% 29.97 in 10.0 mi West 9.2 mph - N/A   Partly Cloudy
3:55 AM 24.8 °F 16.1 °F 15.8 °F 69% 29.97 in 10.0 mi West 8.1 mph - N/A   Clear
4:15 AM 21.2 °F 10.9 °F 14.0 °F 74% 29.97 in 10.0 mi WNW 9.2 mph - N/A   Clear
4:35 AM 19.4 °F 8.6 °F 12.2 °F 74% 29.97 in 10.0 mi West 9.2 mph - N/A   Clear
4:55 AM 21.2 °F 11.7 °F 14.0 °F 74% 29.97 in 10.0 mi West 8.1 mph - N/A   Clear
5:15 AM 17.6 °F 6.4 °F 12.2 °F 79% 29.98 in 10.0 mi West 9.2 mph - N/A   Clear
5:35 AM 19.4 °F 10.4 °F 12.2 °F 74% 29.98 in 10.0 mi WNW 6.9 mph - N/A   Clear
5:55 AM 17.6 °F 8.2 °F 12.2 °F 79% 29.98 in 10.0 mi West 6.9 mph - N/A   Clear
6:15 AM 19.4 °F 12.8 °F 12.2 °F 74% 29.98 in 10.0 mi SW 4.6 mph - N/A   Clear
6:35 AM 19.4 °F 10.4 °F 15.8 °F 86% 29.98 in 10.0 mi WSW 6.9 mph - N/A   Clear
6:55 AM 21.2 °F 13.6 °F 15.8 °F 80% 29.99 in 10.0 mi West 5.8 mph - N/A   Clear
7:15 AM 21.2 °F 12.6 °F 15.8 °F 80% 29.99 in 10.0 mi WSW 6.9 mph - N/A   Clear
7:35 AM 15.8 °F 7.2 °F 6.8 °F 68% 30.00 in 9.0 mi SW 5.8 mph - N/A   Clear
7:55 AM 17.6 °F 6.4 °F 10.4 °F 73% 29.99 in 10.0 mi SSW 9.2 mph - N/A   Clear
8:15 AM 19.4 °F 8.6 °F 12.2 °F 74% 30.00 in 10.0 mi SW 9.2 mph - N/A   Clear
8:35 AM 19.4 °F 9.5 °F 12.2 °F 74% 30.00 in 10.0 mi SW 8.1 mph - N/A   Clear
8:55 AM 21.2 °F 12.6 °F 15.8 °F 80% 30.00 in 10.0 mi SW 6.9 mph - N/A   Clear
9:15 AM 23.0 °F 13.9 °F 15.8 °F 74% 30.00 in 10.0 mi SW 8.1 mph - N/A   Clear
9:35 AM 24.8 °F 16.1 °F 17.6 °F 74% 30.01 in 10.0 mi WSW 8.1 mph - N/A   Clear
9:55 AM 26.6 °F 16.2 °F 17.6 °F 69% 30.01 in 10.0 mi WSW 11.5 mph - N/A   Scattered Clouds
10:15 AM 28.4 °F 19.1 °F 17.6 °F 64% 30.01 in 10.0 mi WSW 10.4 mph - N/A   Scattered Clouds
10:35 AM 30.2 °F 21.3 °F 17.6 °F 60% 30.01 in 10.0 mi WSW 10.4 mph - N/A   Clear
10:55 AM 32.0 °F 22.5 °F 17.6 °F 55% 30.01 in 10.0 mi WSW 12.7 mph - N/A   Clear
11:15 AM 33.8 °F 24.8 °F 17.6 °F 52% 30.01 in 10.0 mi WSW 12.7 mph - N/A   Clear
11:35 AM 35.6 °F 27.5 °F 19.4 °F 52% 29.99 in 10.0 mi SW 11.5 mph - N/A   Clear
11:55 AM 37.4 °F 28.5 °F 17.6 °F 45% 29.99 in 10.0 mi SW 15.0 mph - N/A   Clear
12:15 PM 39.2 °F 31.6 °F 17.6 °F 42% 29.98 in 10.0 mi WSW 12.7 mph 18.4 mph N/A   Clear
12:35 PM 39.2 °F 30.8 °F 15.8 °F 39% 29.97 in 10.0 mi SW 15.0 mph 18.4 mph N/A   Clear
12:55 PM 39.2 °F 30.8 °F 15.8 °F 39% 29.96 in 10.0 mi WSW 15.0 mph 19.6 mph N/A   Clear
1:15 PM 39.2 °F 30.5 °F 15.8 °F 39% 29.96 in 10.0 mi WSW 16.1 mph - N/A   Clear
1:35 PM 41.0 °F 33.5 °F 15.8 °F 36% 29.95 in 10.0 mi WSW 13.8 mph 20.7 mph N/A   Clear
1:55 PM 42.8 °F 35.1 °F 15.8 °F 34% 29.94 in 10.0 mi WSW 16.1 mph 21.9 mph N/A   Clear
2:15 PM 42.8 °F 35.4 °F 14.0 °F 31% 29.93 in 10.0 mi West 15.0 mph 20.7 mph N/A   Clear
2:35 PM 42.8 °F 35.4 °F 14.0 °F 31% 29.93 in 10.0 mi WSW 15.0 mph 20.7 mph N/A   Clear
2:55 PM 42.8 °F 35.4 °F 12.2 °F 29% 29.92 in 10.0 mi West 15.0 mph - N/A   Clear
3:15 PM 42.8 °F 35.1 °F 12.2 °F 29% 29.93 in 10.0 mi WSW 16.1 mph 20.7 mph N/A   Clear
3:35 PM 42.8 °F 35.8 °F 12.2 °F 29% 29.93 in 10.0 mi WSW 13.8 mph 18.4 mph N/A   Clear
3:55 PM 42.8 °F 35.1 °F 12.2 °F 29% 29.92 in 10.0 mi SW 16.1 mph - N/A   Clear
4:15 PM 42.8 °F 36.2 °F 10.4 °F 27% 29.91 in 10.0 mi SW 12.7 mph - N/A   Clear
4:35 PM 42.8 °F 37.5 °F 10.4 °F 27% 29.91 in 10.0 mi SW 9.2 mph - N/A   Clear
4:55 PM 39.2 °F 33.6 °F 10.4 °F 31% 29.92 in 10.0 mi SW 8.1 mph - N/A   Clear
5:15 PM 33.8 °F 27.7 °F 6.8 °F 32% 29.92 in 9.0 mi SW 6.9 mph - N/A   Clear
5:35 PM 33.8 °F 27.7 °F 8.6 °F 35% 29.92 in 10.0 mi SW 6.9 mph - N/A   Clear
5:55 PM 32.0 °F 25.6 °F 6.8 °F 35% 29.92 in 10.0 mi SSW 6.9 mph - N/A   Clear
6:15 PM 30.2 °F 21.9 °F 6.8 °F 37% 29.92 in 10.0 mi SSW 9.2 mph - N/A   Clear
6:35 PM 26.6 °F 17.5 °F 5.0 °F 40% 29.92 in 10.0 mi SSW 9.2 mph - N/A   Clear
6:55 PM 28.4 °F 20.4 °F 6.8 °F 40% 29.92 in 10.0 mi SSW 8.1 mph - N/A   Clear
7:15 PM 24.8 °F 14.6 °F 5.0 °F 43% 29.92 in 10.0 mi South 10.4 mph - N/A   Clear
7:35 PM 23.0 °F 12.4 °F 5.0 °F 46% 29.92 in 10.0 mi South 10.4 mph - N/A   Clear
7:55 PM 24.8 °F 14.6 °F 8.6 °F 50% 29.92 in 10.0 mi South 10.4 mph - N/A   Clear
8:15 PM 26.6 °F 16.8 °F 8.6 °F 47% 29.92 in 10.0 mi South 10.4 mph - N/A   Clear
8:35 PM 28.4 °F 19.1 °F 8.6 °F 43% 29.92 in 10.0 mi South 10.4 mph - N/A   Clear
8:55 PM 28.4 °F 18.0 °F 8.6 °F 43% 29.92 in 10.0 mi South 12.7 mph - N/A   Clear
9:15 PM 30.2 °F 19.3 °F 10.4 °F 44% 29.91 in 10.0 mi South 15.0 mph - N/A   Clear
9:35 PM 30.2 °F 18.9 °F 10.4 °F 44% 29.90 in 10.0 mi South 16.1 mph - N/A   Clear
9:55 PM 30.2 °F 18.1 °F 10.4 °F 44% 29.91 in 10.0 mi South 18.4 mph - N/A   Scattered Clouds
10:15 PM 30.2 °F 19.3 °F 10.4 °F 44% 29.91 in 10.0 mi South 15.0 mph - N/A   Partly Cloudy
10:35 PM 30.2 °F 19.3 °F 10.4 °F 44% 29.90 in 10.0 mi South 15.0 mph - N/A   Clear
10:55 PM 30.2 °F 18.9 °F 10.4 °F 44% 29.90 in 10.0 mi South 16.1 mph - N/A   Clear
11:15 PM 28.4 °F 17.5 °F 12.2 °F 51% 29.90 in 10.0 mi South 13.8 mph - N/A   Clear
11:35 PM 28.4 °F 17.0 °F 12.2 °F 51% 29.90 in 10.0 mi South 15.0 mph - N/A   Clear
11:55 PM 28.4 °F 17.5 °F 12.2 °F 51% 29.91 in 10.0 mi South 13.8 mph - N/A   Clear